Date String (YYYY-MM-DD hh:mm:ss) UTC,Instrument flags,absolute air pressure of the measurement (hPa),sample flow rate (lpm),inlet stack bypass flow (lpm),air temperature of the measurement (°C),ambient temperature measured by the external sensor (°C),aerosol sample conditioner tube jacket temperature (°C),OPC LED temperature (°C),internal box temperature (°C),relative humidity of the measurement (%),span deviation,mass concentration of particles derived from Lorenz-Mie calculation of OPC scattering (μg/m³),mass concentration of particles derived from Lorenz-Mie calculation of OPC scattering (μg/m³),mass concentration of particles derived from Lorenz-Mie calculation of OPC scattering (μg/m³)
DateTimeUTC,F1_M11,P_M11,Q1_M11,Q2_M11,T1_M11,T2_M11,T3_M11,T4_M11,T5_M11,U1_M11,ZSPAN_M11,X0_M11,X2_M11,X1_M11
2023-09-29 23:00:00,SystemResetWarning,0827.7,5.00,000.00,028.0,026.4,000.0,036.4,029.9,17.5,0000.0,0020.33,0005.90,0004.24
2023-09-29 23:01:00,SystemResetWarning,0827.7,5.00,000.00,028.1,026.7,000.0,036.4,030.0,17.7,0000.0,0020.15,0005.87,0004.24
2023-09-29 23:02:00,SystemResetWarning,0827.8,5.00,000.00,028.1,027.0,000.0,036.4,030.1,17.6,0000.0,0019.32,0005.83,0004.24
2023-09-29 23:03:00,SystemResetWarning,0827.8,4.99,000.00,028.2,026.3,000.0,036.4,030.0,17.5,0000.0,0019.00,0005.82,0004.24
2023-09-29 23:04:00,SystemResetWarning,0827.7,4.99,000.00,028.1,024.7,000.0,036.4,029.8,17.5,0000.0,0017.74,0005.73,0004.22
2023-09-29 23:05:00,SystemResetWarning,0827.7,5.01,000.00,028.0,024.3,000.0,036.3,029.7,17.6,0000.0,0017.38,0005.70,0004.21
2023-09-29 23:06:00,SystemResetWarning,0827.7,5.00,000.00,028.0,024.6,000.0,036.3,029.6,17.8,0000.0,0016.52,0005.60,0004.20
2023-09-29 23:07:00,SystemResetWarning,0827.7,5.00,000.00,027.9,025.0,000.0,036.3,029.6,17.8,0000.0,0017.06,0005.58,0004.19
2023-09-29 23:08:00,SystemResetWarning,0827.7,5.00,000.00,027.9,025.4,000.0,036.3,029.6,17.8,0000.0,0016.58,0005.52,0004.18
2023-09-29 23:09:00,SystemResetWarning,0827.8,5.00,000.00,028.0,025.8,000.0,036.3,029.7,17.9,0000.0,0017.52,0005.56,0004.18
2023-09-29 23:10:00,SystemResetWarning,0827.8,5.00,000.00,028.0,026.2,000.0,036.3,029.8,18.1,0000.0,0018.27,0005.59,0004.19
2023-09-29 23:11:00,SystemResetWarning,0827.8,5.00,000.00,028.0,026.6,000.0,036.4,029.9,18.0,0000.0,0018.91,0005.61,0004.19
2023-09-29 23:12:00,SystemResetWarning,0827.8,5.00,000.00,028.1,026.9,000.0,036.4,030.0,17.9,0000.0,0019.46,0005.68,0004.19
2023-09-29 23:13:00,SystemResetWarning,0827.8,5.01,000.00,028.2,027.0,000.0,036.4,030.1,18.0,0000.0,0019.48,0005.72,0004.20
2023-09-29 23:14:00,SystemResetWarning,0827.8,4.98,000.00,028.2,025.8,000.0,036.4,030.0,18.0,0000.0,0019.05,0005.70,0004.20
2023-09-29 23:15:00,SystemResetWarning,0827.7,5.01,000.00,028.1,024.4,000.0,036.4,029.7,18.2,0000.0,0019.80,0005.75,0004.21
2023-09-29 23:16:00,SystemResetWarning,0827.7,5.01,000.00,028.0,024.4,000.0,036.3,029.6,18.2,0000.0,0021.15,0005.86,0004.22
2023-09-29 23:17:00,SystemResetWarning,0827.7,5.00,000.00,027.9,024.7,000.0,036.3,029.5,18.0,0000.0,0021.98,0005.89,0004.23
2023-09-29 23:18:00,SystemResetWarning,0827.7,5.00,000.00,027.9,025.1,000.0,036.3,029.5,18.4,0000.0,0022.31,0005.94,0004.24
2023-09-29 23:19:00,SystemResetWarning,0827.7,4.99,000.00,027.9,025.6,000.0,036.3,029.6,18.1,0000.0,0021.43,0005.95,0004.25
2023-09-29 23:20:00,SystemResetWarning,0827.7,5.00,000.00,028.0,026.0,000.0,036.3,029.7,18.1,0000.0,0020.38,0005.92,0004.25
2023-09-29 23:21:00,SystemResetWarning,0827.7,5.00,000.00,028.0,026.3,000.0,036.4,029.8,18.4,0000.0,0020.82,0005.93,0004.26
2023-09-29 23:22:00,SystemResetWarning,0827.7,5.00,000.00,028.1,026.7,000.0,036.4,029.9,18.2,0000.0,0020.60,0005.91,0004.25
2023-09-29 23:23:00,SystemResetWarning,0827.8,5.00,000.00,028.1,027.0,000.0,036.4,030.0,18.2,0000.0,0019.93,0005.82,0004.25
2023-09-29 23:24:00,SystemResetWarning,0827.7,4.99,000.00,028.2,026.8,000.0,036.4,030.1,17.9,0000.0,0020.16,0005.77,0004.25
2023-09-29 23:25:00,SystemResetWarning,0827.8,4.98,000.00,028.1,025.2,000.0,036.4,029.9,17.7,0000.0,0019.98,0005.81,0004.25
2023-09-29 23:26:00,SystemResetWarning,0827.7,5.02,000.00,028.1,024.3,000.0,036.3,029.7,18.3,0000.0,0018.25,0005.73,0004.25
2023-09-29 23:27:00,SystemResetWarning,0827.7,5.01,000.00,028.0,024.5,000.0,036.3,029.6,18.6,0000.0,0017.45,0005.64,0004.25
2023-09-29 23:28:00,SystemResetWarning,0827.7,5.00,000.00,027.9,024.8,000.0,036.3,029.5,18.7,0000.0,0018.59,0005.68,0004.25
2023-09-29 23:29:00,SystemResetWarning,0827.7,5.01,000.00,027.9,025.3,000.0,036.3,029.6,18.9,0000.0,0018.18,0005.64,0004.22
2023-09-29 23:30:00,SystemResetWarning,0827.8,4.99,000.00,027.9,025.7,000.0,036.3,029.7,18.8,0000.0,0018.37,0005.69,0004.22
2023-09-29 23:31:00,SystemResetWarning,0827.8,5.00,000.00,028.0,026.1,000.0,036.4,029.8,18.5,0000.0,0018.38,0005.68,0004.21
2023-09-29 23:32:00,SystemResetWarning,0827.8,5.00,000.00,028.0,026.5,000.0,036.4,029.9,18.3,0000.0,0018.60,0005.65,0004.21
2023-09-29 23:33:00,SystemResetWarning,0827.8,4.99,000.00,028.1,026.8,000.0,036.4,030.0,18.0,0000.0,0018.58,0005.69,0004.20
2023-09-29 23:34:00,SystemResetWarning,0827.8,4.99,000.00,028.1,027.0,000.0,036.4,030.1,18.1,0000.0,0018.61,0005.72,0004.19
2023-09-29 23:35:00,SystemResetWarning,0827.7,5.00,000.00,028.2,027.0,000.0,036.4,030.1,18.2,0000.0,0019.03,0005.75,0004.19
2023-09-29 23:36:00,SystemResetWarning,0827.7,4.99,000.00,028.2,025.6,000.0,036.4,030.0,18.4,0000.0,0018.65,0005.80,0004.19
2023-09-29 23:37:00,SystemResetWarning,0827.7,5.02,000.00,028.1,024.4,000.0,036.4,029.8,18.1,0000.0,0019.40,0005.86,0004.19
2023-09-29 23:38:00,SystemResetWarning,0827.7,5.00,000.00,028.1,024.5,000.0,036.3,029.7,18.7,0000.0,0019.64,0005.89,0004.19
2023-09-29 23:39:00,SystemResetWarning,0827.7,5.00,000.00,028.0,024.8,000.0,036.3,029.5,18.6,0000.0,0018.58,0005.86,0004.18
2023-09-29 23:40:00,SystemResetWarning,0827.7,5.00,000.00,028.0,025.2,000.0,036.3,029.6,18.7,0000.0,0018.40,0005.88,0004.19
2023-09-29 23:41:00,SystemResetWarning,0827.8,5.00,000.00,028.0,025.7,000.0,036.3,029.7,18.5,0000.0,0018.12,0005.82,0004.19
2023-09-29 23:42:00,SystemResetWarning,0827.8,5.00,000.00,028.0,026.1,000.0,036.4,029.8,18.6,0000.0,0018.57,0005.83,0004.19
2023-09-29 23:43:00,SystemResetWarning,0827.8,5.00,000.00,028.1,026.4,000.0,036.4,029.9,18.7,0000.0,0018.15,0005.85,0004.19
2023-09-29 23:44:00,SystemResetWarning,0827.9,5.00,000.00,028.1,026.7,000.0,036.4,030.0,18.6,0000.0,0017.99,0005.88,0004.19
2023-09-29 23:45:00,SystemResetWarning,0827.8,5.01,000.00,028.2,027.0,000.0,036.4,030.1,18.7,0000.0,0019.27,0005.87,0004.20
2023-09-29 23:46:00,SystemResetWarning,0827.8,5.00,000.00,028.2,027.1,000.0,036.5,030.2,18.6,0000.0,0020.18,0005.97,0004.20
2023-09-29 23:47:00,SystemResetWarning,0827.8,4.99,000.00,028.2,025.9,000.0,036.5,030.1,18.7,0000.0,0021.36,0005.97,0004.20
2023-09-29 23:48:00,SystemResetWarning,0827.7,5.00,000.00,028.2,024.5,000.0,036.4,029.8,18.6,0000.0,0021.28,0005.94,0004.19
2023-09-29 23:49:00,SystemResetWarning,0827.7,5.01,000.00,028.1,024.4,000.0,036.4,029.8,18.7,0000.0,0021.04,0005.91,0004.18
2023-09-29 23:50:00,SystemResetWarning,0827.8,5.01,000.00,028.0,024.7,000.0,036.4,029.6,18.7,0000.0,0020.86,0005.96,0004.17
2023-09-29 23:51:00,SystemResetWarning,0827.8,5.00,000.00,028.0,025.1,000.0,036.4,029.6,18.8,0000.0,0021.61,0005.93,0004.16
2023-09-29 23:52:00,SystemResetWarning,0827.8,5.00,000.00,028.0,025.6,000.0,036.4,029.7,19.1,0000.0,0023.61,0005.93,0004.14
2023-09-29 23:53:00,SystemResetWarning,0827.8,5.00,000.00,028.0,026.0,000.0,036.4,029.8,19.1,0000.0,0024.22,0005.91,0004.12
2023-09-29 23:54:00,SystemResetWarning,0827.8,5.00,000.00,028.1,026.3,000.0,036.4,029.9,18.9,0000.0,0024.80,0005.91,0004.10
2023-09-29 23:55:00,SystemResetWarning,0827.8,5.00,000.00,028.1,026.7,000.0,036.4,030.0,18.9,0000.0,0025.45,0005.88,0004.09
2023-09-29 23:56:00,SystemResetWarning,0827.8,5.00,000.00,028.2,026.9,000.0,036.5,030.1,18.8,0000.0,0024.48,0005.87,0004.08
2023-09-29 23:57:00,SystemResetWarning,0827.8,5.00,000.00,028.2,027.1,000.0,036.5,030.1,18.7,0000.0,0023.70,0005.84,0004.08
2023-09-29 23:58:00,SystemResetWarning,0827.7,4.99,000.00,028.3,026.3,000.0,036.5,030.1,18.6,0000.0,0022.51,0005.77,0004.06
2023-09-29 23:59:00,SystemResetWarning,0827.8,5.00,000.00,028.2,024.7,000.0,036.4,029.8,18.4,0000.0,0023.30,0005.72,0004.03
